TimeCDT,TemperatureF,Dew PointF,Humidity,Sea Level PressureIn,VisibilityMPH,Wind Direction,Wind SpeedMPH,Gust SpeedMPH,PrecipitationIn,Events,Conditions,WindDirDegrees,DateUTC
12:15 AM,53.6,45.7,75,29.95,10.0,West,5.8,-,N/A,,Scattered Clouds,270,2013-09-22 05:15:00
12:35 AM,54.0,45.5,73,29.95,10.0,West,6.9,-,N/A,,Scattered Clouds,270,2013-09-22 05:35:00
12:55 AM,53.4,45.5,75,29.95,10.0,West,5.8,-,N/A,,Scattered Clouds,260,2013-09-22 05:55:00
1:15 AM,52.3,45.5,78,29.95,10.0,West,4.6,-,N/A,,Scattered Clouds,270,2013-09-22 06:15:00
1:35 AM,52.0,45.7,79,29.95,10.0,West,5.8,-,N/A,,Scattered Clouds,280,2013-09-22 06:35:00
1:55 AM,53.4,45.5,75,29.95,10.0,West,5.8,-,N/A,,Scattered Clouds,260,2013-09-22 06:55:00
2:15 AM,53.1,45.1,74,29.95,10.0,West,5.8,-,N/A,,Scattered Clouds,260,2013-09-22 07:15:00
2:35 AM,53.2,45.3,74,29.96,10.0,West,5.8,-,N/A,,Scattered Clouds,270,2013-09-22 07:35:00
2:55 AM,52.3,45.5,78,29.96,10.0,West,4.6,-,N/A,,Mostly Cloudy,270,2013-09-22 07:55:00
3:15 AM,53.1,46.2,78,29.96,10.0,West,4.6,-,N/A,,Mostly Cloudy,270,2013-09-22 08:15:00
3:35 AM,53.1,47.1,80,29.96,10.0,West,5.8,-,N/A,,Overcast,270,2013-09-22 08:35:00
3:55 AM,54.5,46.6,75,29.97,10.0,West,3.5,-,N/A,,Mostly Cloudy,280,2013-09-22 08:55:00
4:15 AM,56.3,47.1,71,29.96,10.0,West,3.5,-,N/A,,Overcast,280,2013-09-22 09:15:00
4:35 AM,59.2,50.4,73,29.97,10.0,East,8.1,-,N/A,,Overcast,90,2013-09-22 09:35:00
4:45 AM,57.2,48.2,72,29.97,20.0,SE,8.1,-,N/A,,Overcast,130,2013-09-22 09:45:00
5:45 AM,55.4,48.2,77,29.99,20.0,SE,8.1,-,N/A,,Overcast,130,2013-09-22 10:45:00
6:45 AM,53.6,50.0,88,30.01,20.0,Calm,Calm,-,N/A,,Mostly Cloudy,0,2013-09-22 11:45:00
7:45 AM,55.4,48.2,77,30.03,20.0,Calm,Calm,-,N/A,,Mostly Cloudy,0,2013-09-22 12:45:00
8:45 AM,57.2,46.4,67,30.04,20.0,Calm,Calm,-,N/A,,Mostly Cloudy,0,2013-09-22 13:45:00
9:45 AM,60.8,46.4,59,30.05,20.0,Calm,Calm,-,N/A,,Mostly Cloudy,0,2013-09-22 14:45:00
10:45 AM,62.6,48.2,59,30.05,20.0,Variable,5.8,-,N/A,,Mostly Cloudy,0,2013-09-22 15:45:00
11:45 AM,64.4,46.4,52,30.06,20.0,NNE,8.1,-,N/A,,Mostly Cloudy,30,2013-09-22 16:45:00
12:45 PM,64.4,46.4,52,30.05,20.0,NNE,11.5,-,N/A,,Scattered Clouds,30,2013-09-22 17:45:00
1:45 PM,64.4,46.4,52,30.04,20.0,NE,9.2,-,N/A,,Scattered Clouds,40,2013-09-22 18:45:00
2:45 PM,64.4,48.2,56,30.03,20.0,NNE,9.2,-,N/A,,Scattered Clouds,20,2013-09-22 19:45:00
3:45 PM,62.6,48.2,59,30.04,20.0,NNE,11.5,-,N/A,,Scattered Clouds,30,2013-09-22 20:45:00
4:47 PM,89.6,35.6,15,29.69,10.0,West,16.1,24.2,N/A,,Clear,260,2013-09-22 21:47:00
5:45 PM,60.8,46.4,59,30.04,20.0,NNE,6.9,-,N/A,,Scattered Clouds,30,2013-09-22 22:45:00
6:45 PM,60.8,46.4,59,30.04,20.0,NE,5.8,-,N/A,,Partly Cloudy,40,2013-09-22 23:45:00
7:45 PM,57.2,46.4,67,30.04,20.0,NE,4.6,-,N/A,,Partly Cloudy,40,2013-09-23 00:45:00
8:45 PM,57.2,46.4,67,30.05,20.0,ENE,8.1,-,N/A,,Partly Cloudy,60,2013-09-23 01:45:00
9:15 PM,57.2,46.9,69,30.05,10.0,ENE,9.2,-,N/A,,Clear,60,2013-09-23 02:15:00
9:35 PM,57.2,46.9,69,30.05,10.0,NE,8.1,-,N/A,,Clear,50,2013-09-23 02:35:00
9:45 PM,57.2,46.4,67,30.05,20.0,ENE,8.1,-,N/A,,Partly Cloudy,70,2013-09-23 02:45:00
9:55 PM,57.0,46.8,69,30.06,10.0,SE,4.6,-,N/A,,Clear,130,2013-09-23 02:55:00
10:15 PM,53.6,46.6,77,30.05,10.0,East,5.8,-,N/A,,Clear,90,2013-09-23 03:15:00
10:35 PM,54.1,46.9,77,30.06,10.0,SE,4.6,-,N/A,,Clear,140,2013-09-23 03:35:00
10:55 PM,52.9,46.2,78,30.06,10.0,ESE,5.8,-,N/A,,Clear,110,2013-09-23 03:55:00
11:15 PM,53.1,45.7,76,30.07,10.0,East,5.8,-,N/A,,Clear,90,2013-09-23 04:15:00
11:35 PM,53.1,45.5,75,30.07,10.0,East,8.1,-,N/A,,Clear,100,2013-09-23 04:35:00
11:55 PM,52.9,44.6,73,30.07,10.0,East,9.2,-,N/A,,Clear,100,2013-09-23 04:55:00